[[{"header":{"parameterUnit":"m.s-1","parameterCategory":1,"la1":30.2992,"la2":30.254,"lo1":-89.0895,"lo2":-89.0443,"dy":0.0025,"dx":0.0025,"nx":19,"ny":19,"refTime":"2026-03-26T03:00:00:Z","depth":0,"parameterNumber":2,"parameterNumberName":"U-component_of_WINDS"},"data":[0,0,0,-1.8067,-1.8069,-1.8178,-1.8178,-1.8319,-1.832,0,0,0,0,0,0,0,0,0,0,0,-1.8034,-1.8034,-1.8066,-1.8069,-1.8178,-1.8178,-1.8319,-1.832,0,0,0,0,0,0,0,0,0,0,0,-1.8033,-1.8034,-1.8035,-1.807,-1.8178,-1.8178,-1.8318,-1.8236,0,0,0,0,0,0,0,0,0,0,-1.813,-1.8098,-1.8034,-1.8035,-1.807,-1.8178,-1.8178,-1.8232,-1.8241,-1.8269,0,-1.8293,0,-1.8309,-1.8329,-1.833,0,0,0,-1.807,-1.8091,-1.8121,-1.8035,-1.8071,-1.8178,-1.8129,-1.8237,-1.8247,-1.8282,-1.8295,-1.83,-1.8311,-1.833,-1.8331,-1.8488,-1.8489,0,0,-1.8064,-1.8053,-1.8114,-1.8127,-1.8109,-1.8126,-1.8132,-1.8243,-1.8258,-1.8296,-1.8304,-1.8313,-1.8331,-1.8332,-1.8487,-1.8488,0,0,0,-1.8046,-1.8049,-1.8076,-1.8122,-1.8141,-1.8129,-1.8137,-1.8253,-1.8263,-1.8305,-1.8315,-1.8332,-1.8334,-1.8487,-1.8488,-1.851,0,0,0,-1.8043,-1.8038,-1.8073,-1.8068,-1.8139,-1.8198,-1.8144,-1.8255,-1.8268,-1.8314,-1.8332,-1.8335,-1.8486,-1.8487,-1.8508,-1.8523,0,0,0,-1.8027,-1.8036,-1.8052,-1.8067,-1.8113,-1.8197,-1.8213,-1.8258,-1.8274,-1.833,-1.8335,-1.8485,-1.8487,-1.8506,-1.8519,-1.8561,0,0,0,-1.8007,-1.807,-1.8052,-1.8127,-1.8112,-1.8209,-1.8212,-1.8285,-1.8336,-1.8333,-1.8486,-1.8487,-1.8505,-1.8517,-1.8558,-1.8593,-1.8607,0,0,-1.8081,-1.8079,-1.8124,-1.8111,-1.8208,-1.8194,-1.8295,-1.8353,-1.8369,-1.8448,-1.8452,-1.8509,-1.8519,-1.856,-1.8686,-1.8696,0,0,0,-1.8144,-1.8176,-1.8204,-1.8251,-1.8296,-1.8337,-1.838,-1.8402,-1.8469,-1.8407,-1.8535,-1.8542,-1.8566,-1.8584,-1.8593,-1.8615,-1.8495,-1.8495,-1.8495,-1.8232,-1.8249,-1.8325,-1.8355,-1.8401,-1.8445,-1.8485,-1.8522,-1.8526,-1.8556,-1.8579,-1.8653,-1.8673,-1.868,-1.8703,-1.8599,-1.8599,-1.8599,-1.86,-1.8342,-1.839,-1.8394,-1.8469,-1.8488,-1.8552,-1.8598,-1.8598,-1.8662,-1.8637,-1.8659,-1.8631,-1.8691,-1.8712,-1.8601,-1.8601,-1.8601,-1.8601,-1.8601,-1.8401,-1.8427,-1.8452,-1.8523,-1.8576,-1.8605,-1.8666,-1.8681,-1.8695,-1.8717,-1.8744,-1.8744,-1.8746,-1.8729,-1.8729,-1.873,-1.873,-1.873,-1.873,-1.8453,-1.848,-1.8529,-1.8582,-1.8615,-1.866,-1.8707,-1.874,-1.8781,-1.8787,-1.8787,-1.8789,-1.8693,-1.8669,-1.8734,-1.8734,-1.8733,-1.8733,-1.8732,-1.8558,-1.8537,-1.8611,-1.8644,-1.8709,-1.8761,-1.878,-1.8847,-1.8876,-1.8906,-1.8903,-1.883,-1.883,-1.8823,-1.8802,-1.8899,-1.8899,-1.8899,-1.8899,-1.8608,-1.8609,-1.8689,-1.8741,-1.8793,-1.8818,-1.8903,-1.8941,-1.8976,-1.8996,-1.8985,-1.8959,-1.8951,-1.8956,-1.8946,-1.8927,-1.9053,-1.9053,-1.9054,-1.8674,-1.8681,-1.875,-1.8783,-1.8835,-1.888,-1.8962,-1.9023,-1.9059,-1.906,-1.9012,-1.9006,-1.8965,-1.8951,-1.8951,-1.8935,-1.8901,0,0]},{"header":{"parameterUnit":"m.s-1","parameterCategory":1,"la1":30.2992,"la2":30.254,"lo1":-89.0895,"lo2":-89.0443,"dy":0.0025,"dx":0.0025,"nx":19,"ny":19,"refTime":"2026-03-26T03:00:00:Z","depth":0,"parameterNumber":3,"parameterNumberName":"V-component_of_WINDS"},"data":[0,0,0,2.3868,2.3868,2.3848,2.3848,2.3833,2.3833,0,0,0,0,0,0,0,0,0,0,0,2.3881,2.3881,2.3868,2.3868,2.3848,2.3848,2.3833,2.3833,0,0,0,0,0,0,0,0,0,0,0,2.3881,2.3881,2.3881,2.3868,2.3848,2.3848,2.3833,2.3844,0,0,0,0,0,0,0,0,0,0,2.3861,2.388,2.3881,2.3881,2.3868,2.3848,2.3848,2.3844,2.3843,2.3846,0,2.3852,0,2.3842,2.3832,2.3832,0,0,0,2.3862,2.3881,2.3869,2.3881,2.3868,2.3848,2.3855,2.3844,2.3842,2.3845,2.3851,2.385,2.3842,2.3832,2.3832,2.387,2.3871,0,0,2.3863,2.3881,2.387,2.3869,2.3874,2.3856,2.3855,2.3843,2.385,2.3851,2.385,2.3842,2.3832,2.3832,2.387,2.3871,0,0,0,2.387,2.3882,2.387,2.387,2.3866,2.3856,2.3854,2.3851,2.3846,2.385,2.3841,2.3832,2.3832,2.3869,2.387,2.3909,0,0,0,2.3871,2.3885,2.3871,2.3881,2.3866,2.3858,2.3863,2.3847,2.3845,2.3842,2.3832,2.3832,2.3869,2.387,2.3907,2.3924,0,0,0,2.388,2.3886,2.3886,2.3882,2.3875,2.3858,2.3852,2.3846,2.384,2.3832,2.3832,2.3869,2.387,2.3905,2.3921,2.3939,0,0,0,2.3894,2.392,2.3887,2.3913,2.3875,2.3882,2.3852,2.3856,2.3854,2.3832,2.3869,2.387,2.3904,2.3919,2.3938,2.3958,2.3969,0,0,2.3936,2.3926,2.3939,2.3909,2.3927,2.3884,2.3907,2.3888,2.3871,2.3871,2.3872,2.3907,2.3921,2.3939,2.402,2.4028,0,0,0,2.3959,2.3969,2.397,2.397,2.3957,2.3947,2.3923,2.3917,2.3916,2.3875,2.3918,2.3926,2.3936,2.3945,2.3952,2.396,2.3875,2.3875,2.3875,2.4043,2.4021,2.4042,2.4018,2.4018,2.3994,2.3992,2.3978,2.3955,2.3965,2.3965,2.4017,2.4029,2.4034,2.4042,2.3974,2.3974,2.3975,2.3975,2.4103,2.4115,2.4084,2.4094,2.407,2.4078,2.4056,2.4039,2.4042,2.4015,2.4023,2.3996,2.4044,2.405,2.3977,2.3977,2.3976,2.3976,2.3976,2.4157,2.4158,2.415,2.4148,2.4148,2.4122,2.4127,2.4105,2.4083,2.4091,2.4089,2.4088,2.4085,2.4092,2.4092,2.4092,2.4092,2.4092,2.4092,2.4215,2.4205,2.4212,2.4201,2.4198,2.4192,2.4168,2.4164,2.4154,2.4137,2.4137,2.4113,2.4053,2.4038,2.4095,2.4095,2.4094,2.4094,2.4094,2.4285,2.4266,2.4278,2.4275,2.426,2.4262,2.4234,2.4228,2.4222,2.4225,2.4199,2.4158,2.4145,2.414,2.4127,2.4204,2.4204,2.4204,2.4204,2.433,2.4322,2.4329,2.4326,2.4321,2.4296,2.431,2.4291,2.4269,2.4264,2.4249,2.4231,2.4226,2.4216,2.4209,2.4197,2.4289,2.429,2.429,2.4372,2.4362,2.4379,2.4358,2.4345,2.4334,2.4346,2.4343,2.4314,2.4293,2.4259,2.4255,2.4226,2.4217,2.4196,2.4185,2.4163,0,0]}]]